COSMOS 1275 DEB, 12949

Orbit data source: Space-Track

COSMOS 1275 DEB, 12949 is space debris in LEO originally from a launch on Thu, 04 Jun 1981 UTC launched from the Plesetsk Missile And Space Complex (PKMTR). Debris objects in space refer to the collection of defunct objects orbiting the Earth. Examples of debris include non-operational satellites, rocket bodies, and fragments generated from explosions, collisions, or faulty payload assembly.

Loading next visibility...
Identifier
12949, 1981-053ED
Orbit
LEO
Country
Flag of CISCIS
Related business
Manufacturer
Unknown
Mission
Spacecraft
Bus & Motor
Unknown
Mass
Unknown
Launch date (UTC)
1981-06-04 (45 years ago)
Launch vehicle
Unknown
Launch site
Plesetsk Missile And Space Complex (PKMTR)
Object type
Payload
Rocket body
Debris
Shape & HBR
Unknown shape, 0.1 m
Radar Cross Section
Medium (>0.1 m² and <1 m²)

Expand to show TLE details & history
Last TLE update: 17 hours ago

TLE from 17 hours ago
0 COSMOS 1275 DEB
1 12949U 81053ED  26149.82781815  .00000925  00000-0  65426-3 0  9996
2 12949  82.8440 183.7451 0034788 116.9261 292.5031 13.96568103258232
Epoch: 2026-05-29T19:52Z
TLE epoch observation values (Epoch: 2026-05-29T19:52:03.488Z)
Latitude
48.64541°
Longitude
6.53503°
Altitude
903.723 km
Speed
7.41 km/s
True Right ascension
12h 47m 36s
True Declination
48° 28' 42"
Sunlit
Object was in daylight at epoch
Visualization orbit readout
Latitude
Unknown
Longitude
Unknown
Altitude
Unknown
Speed
Unknown
Apparent Right ascension
Unknown
Apparent Declination
Unknown
Sunlit
N/A
Visualization observer readout
Local Sidereal Time
22:09:31
Azimuth
Unknown
Elevation
Unknown
Doppler factor
Unknown
Orbital elements
Apogee altitude
928.155 km
Perigee altitude
877.497 km
Semi-major axis
7,280.963 km
Eccentricity
0.00348
Inclination
82.844°
RAAN
183.7451°
Arg. of periapsis
116.9261°
True anomaly
292.1342°
Mean anomaly
292.5031°
Eccentric anomaly
292.31871°
Mean motion
3.49349 °/min
Orbital period
103.05 mins
BSTAR
0.00065426
Loading maneuver chart data...
Computing Atmospheric mass density...
Loading historical data...
Loading historical data...
Loading historical data...
Loading historical data...
Loading historical data...
Loading historical data...
Loading historical data...

Documentation

Showing up to 5 results
|